QPF
0.00 0.00 0.00 0.00 0.00 0.00 0.00 0.00 0.00 0.00 0.00 0.00 0.00 0.00 0.00 0.00 0.00 0.00 0.00 0.00 0.00 0.00 0.00 0.01 0.02 0.01 0.01 0.00 0.00 0.01 0.01 0.00 0.00 0.01 0.01 0.01 0.00 0.00 0.00 0.01 0.02 0.00 0.00
0.00 0.00 0.00 0.00 0.00 0.00 0.00 0.00 0.00 0.00 0.00 0.00 0.00 0.00 0.00 0.00 0.00 0.00 0.00 0.00 0.00 0.00 0.00 0.02 0.00 0.01 0.00 0.00 0.02 0.01 0.01 0.01 0.00 0.00 0.00 0.00 0.00 0.01 0.00 0.02 0.03 0.01 0.00
0.00 0.00 0.00 0.00 0.00 0.00 0.00 0.00 0.00 0.00 0.00 0.00 0.00 0.00 0.00 0.00 0.00 0.00 0.00 0.00 0.00 0.00 0.00 0.01 0.00 0.00 0.00 0.02 0.03 0.01 0.00 0.00 0.00 0.01 0.00 0.00 0.00 0.01 0.00 0.03 0.03 0.02 0.00
0.00 0.00 0.00 0.00 0.00 0.00 0.00 0.00 0.00 0.00 0.00 0.00 0.00 0.00 0.00 0.00 0.00 0.00 0.00 0.00 0.00 0.00 0.00 0.00 0.01 0.00 0.01 0.02 0.01 0.00 0.00 0.00 0.00 0.00 0.00 0.00 0.00 0.01 0.00 0.02 0.02 0.01 0.01
0.01 0.01 0.00 0.01 0.01 0.00 0.00 0.00 0.00 0.01 0.01 0.00 0.00 0.00 0.00 0.00 0.00 0.00 0.00 0.00 0.00 0.00 0.00 0.00 0.00 0.00 0.01 0.01 0.01 0.01 0.00 0.00 0.00 0.00 0.00 0.00 0.00 0.00 0.00 0.03 0.04 0.02 0.04
0.01 0.01 0.01 0.01 0.03 0.04 0.02 0.01 0.01 0.01 0.01 0.01 0.00 0.00 0.00 0.00 0.00 0.00 0.01 0.01 0.01 0.02 0.00 0.00 0.00 0.00 0.02 0.01 0.01 0.01 0.00 0.00 0.00 0.00 0.00 0.00 0.06 0.04 0.00 0.04 0.06 0.02 0.04
0.00 0.01 0.01 0.02 0.06 0.10 0.10 0.04 0.01 0.01 0.01 0.01 0.01 0.01 0.00 0.00 0.00 0.01 0.01 0.01 0.02 0.02 0.01 0.00 0.00 0.01 0.01 0.01 0.01 0.01 0.00 0.00 0.00 0.00 0.00 0.00 0.09 0.12 0.03 0.02 0.07 0.01 0.03
0.00 0.00 0.01 0.01 0.02 0.06 0.08 0.07 0.02 0.01 0.03 0.02 0.01 0.01 0.01 0.01 0.00 0.01 0.01 0.00 0.02 0.02 0.03 0.01 0.01 0.01 0.01 0.01 0.00 0.00 0.00 0.00 0.00 0.00 0.00 0.00 0.02 0.11 0.05 0.02 0.08 0.05 0.06
0.00 0.00 0.00 0.00 0.01 0.02 0.02 0.03 0.04 0.06 0.05 0.06 0.04 0.04 0.01 0.00 0.00 0.00 0.01 0.01 0.03 0.07 0.07 0.01 0.00 0.00 0.01 0.02 0.01 0.00 0.00 0.00 0.00 0.00 0.00 0.00 0.01 0.08 0.06 0.06 0.10 0.05 0.07
0.00 0.00 0.00 0.00 0.00 0.00 0.01 0.04 0.04 0.06 0.09 0.07 0.04 0.03 0.01 0.00 0.00 0.00 0.00 0.00 0.01 0.02 0.03 0.01 0.01 0.01 0.01 0.00 0.01 0.02 0.01 0.01 0.00 0.00 0.00 0.00 0.02 0.16 0.09 0.10 0.12 0.06 0.08
0.00 0.00 0.00 0.00 0.00 0.00 0.00 0.01 0.04 0.10 0.13 0.15 0.10 0.05 0.01 0.00 0.00 0.00 0.00 0.00 0.00 0.00 0.00 0.00 0.02 0.03 0.00 0.00 0.00 0.03 0.07 0.03 0.01 0.00 0.00 0.00 0.01 0.16 0.16 0.11 0.08 0.10 0.10
0.00 0.00 0.00 0.00 0.00 0.00 0.00 0.00 0.02 0.08 0.13 0.17 0.12 0.05 0.01 0.00 0.00 0.00 0.00 0.00 0.00 0.00 0.00 0.00 0.01 0.01 0.00 0.00 0.00 0.01 0.04 0.03 0.01 0.03 0.00 0.00 0.02 0.17 0.26 0.13 0.11 0.13 0.10
0.00 0.00 0.00 0.00 0.00 0.00 0.00 0.00 0.00 0.02 0.04 0.05 0.05 0.02 0.00 0.00 0.00 0.00 0.00 0.00 0.00 0.00 0.00 0.00 0.00 0.00 0.00 0.00 0.00 0.00 0.01 0.00 0.04 0.08 0.03 0.02 0.05 0.13 0.28 0.18 0.12 0.13 0.10
0.00 0.00 0.00 0.00 0.00 0.00 0.00 0.00 0.00 0.00 0.01 0.01 0.01 0.00 0.00 0.00 0.00 0.00 0.00 0.00 0.00 0.00 0.00 0.00 0.00 0.00 0.00 0.00 0.00 0.00 0.00 0.00 0.01 0.01 0.04 0.05 0.01 0.06 0.31 0.20 0.13 0.10 0.08
0.00 0.00 0.00 0.00 0.00 0.00 0.00 0.00 0.00 0.00 0.00 0.00 0.00 0.00 0.00 0.00 0.00 0.00 0.00 0.00 0.00 0.00 0.00 0.00 0.00 0.00 0.00 0.00 0.00 0.00 0.00 0.00 0.00 0.03 0.07 0.07 0.06 0.04 0.07 0.14 0.11 0.09 0.07
0.00 0.00 0.00 0.00 0.00 0.00 0.00 0.00 0.00 0.00 0.00 0.00 0.00 0.00 0.00 0.00 0.00 0.00 0.00 0.00 0.00 0.00 0.00 0.00 0.00 0.00 0.00 0.00 0.00 0.00 0.00 0.00 0.00 0.01 0.09 0.10 0.15 0.02 0.00 0.10 0.17 0.12 0.08
0.00 0.00 0.00 0.00 0.00 0.00 0.00 0.00 0.00 0.00 0.00 0.00 0.00 0.00 0.00 0.00 0.00 0.00 0.00 0.00 0.00 0.00 0.00 0.00 0.00 0.00 0.00 0.00 0.00 0.00 0.00 0.00 0.00 0.02 0.05 0.07 0.10 0.04 0.01 0.02 0.12 0.15 0.07
0.00 0.00 0.00 0.00 0.00 0.00 0.00 0.00 0.00 0.00 0.00 0.00 0.00 0.01 0.00 0.01 0.00 0.00 0.00 0.00 0.00 0.00 0.00 0.01 0.00 0.00 0.00 0.00 0.00 0.00 0.00 0.00 0.00 0.04 0.02 0.03 0.04 0.04 0.03 0.04 0.09 0.08 0.04
0.00 0.00 0.00 0.00 0.00 0.00 0.00 0.00 0.00 0.00 0.00 0.01 0.01 0.02 0.02 0.02 0.01 0.00 0.00 0.00 0.00 0.00 0.00 0.00 0.00 0.00 0.00 0.00 0.00 0.00 0.00 0.00 0.00 0.03 0.04 0.02 0.02 0.02 0.02 0.01 0.02 0.02 0.01
0.00 0.00 0.00 0.00 0.00 0.00 0.00 0.00 0.00 0.00 0.00 0.00 0.00 0.02 0.02 0.01 0.00 0.00 0.00 0.00 0.00 0.00 0.01 0.00 0.00 0.00 0.00 0.00 0.00 0.00 0.00 0.00 0.00 0.01 0.03 0.01 0.00 0.01 0.00 0.00 0.00 0.00 0.01
0.00 0.00 0.00 0.00 0.00 0.00 0.00 0.00 0.00 0.00 0.00 0.00 0.00 0.00 0.01 0.01 0.00 0.00 0.00 0.00 0.00 0.00 0.00 0.00 0.00 0.00 0.00 0.00 0.00 0.00 0.00 0.00 0.00 0.00 0.00 0.00 0.00 0.00 0.00 0.00 0.00 0.00 0.00
0.00 0.00 0.00 0.00 0.00 0.00 0.00 0.00 0.00 0.00 0.00 0.00 0.00 0.00 0.00 0.00 0.00 0.00 0.00 0.00 0.00 0.00 0.00 0.00 0.00 0.00 0.00 0.00 0.00 0.00 0.00 0.00 0.00 0.00 0.00 0.00 0.00 0.00 0.00 0.00 0.00 0.00 0.00
0.00 0.00 0.00 0.00 0.00 0.00 0.00 0.00 0.00 0.00 0.00 0.00 0.00 0.00 0.00 0.00 0.00 0.00 0.00 0.00 0.00 0.00 0.00 0.00 0.00 0.00 0.00 0.00 0.00 0.00 0.00 0.00 0.00 0.00 0.00 0.00 0.00 0.00 0.00 0.00 0.00 0.00 0.00
0.00 0.00 0.00 0.00 0.00 0.00 0.00 0.00 0.00 0.00 0.00 0.00 0.00 0.00 0.00 0.00 0.00 0.00 0.00 0.00 0.00 0.00 0.00 0.00 0.00 0.00 0.00 0.00 0.00 0.00 0.00 0.00 0.00 0.00 0.00 0.00 0.00 0.00 0.00 0.00 0.00 0.00 0.00
0.00 0.00 0.00 0.00 0.00 0.00 0.00 0.00 0.00 0.00 0.00 0.00 0.00 0.00 0.00 0.00 0.00 0.00 0.00 0.00 0.00 0.00 0.00 0.00 0.00 0.00 0.00 0.00 0.00 0.00 0.00 0.00 0.00 0.00 0.00 0.00 0.00 0.00 0.00 0.00 0.00 0.00 0.00
0.00 0.00 0.00 0.00 0.00 0.00 0.00 0.00 0.00 0.00 0.00 0.00 0.00 0.00 0.00 0.00 0.00 0.00 0.00 0.00 0.00 0.00 0.00 0.00 0.00 0.00 0.00 0.00 0.00 0.00 0.00 0.00 0.00 0.00 0.00 0.00 0.00 0.00 0.00 0.00 0.00 0.00 0.00
MSLP
1013.41 1013.07 1012.99 1013.24 1013.55 1013.82 1013.86 1014.10 1014.31 1014.53 1014.69 1014.83 1014.97 1015.18 1015.32 1015.37 1015.50 1015.56 1015.66 1015.73 1015.82 1015.89 1015.84 1015.95 1016.14 1016.26 1016.40 1016.44 1016.66 1016.87 1016.92 1017.03 1017.15 1017.37 1017.47 1017.44 1017.42 1017.61 1017.85 1018.09 1018.13 1018.02 1018.26
1013.91 1013.28 1013.14 1013.26 1013.55 1013.83 1014.10 1014.19 1014.47 1014.74 1014.86 1015.01 1015.11 1015.24 1015.41 1015.60 1015.67 1015.75 1015.83 1015.91 1015.92 1015.97 1016.02 1016.11 1016.25 1016.41 1016.53 1016.57 1016.74 1016.87 1017.05 1017.14 1017.22 1017.53 1017.66 1017.65 1017.65 1017.81 1018.09 1018.13 1018.17 1018.38 1018.43
1015.37 1014.14 1013.49 1013.51 1013.74 1013.93 1014.17 1014.40 1014.60 1014.92 1015.09 1015.16 1015.28 1015.34 1015.50 1015.66 1015.79 1015.86 1015.99 1016.08 1016.10 1016.07 1016.14 1016.26 1016.42 1016.43 1016.65 1016.71 1016.82 1017.01 1017.12 1017.24 1017.21 1017.45 1017.71 1017.58 1017.86 1018.03 1018.24 1018.34 1018.38 1018.51 1018.75
1015.79 1015.55 1014.54 1014.32 1014.36 1014.48 1014.63 1014.83 1014.99 1015.18 1015.38 1015.46 1015.49 1015.53 1015.59 1015.75 1015.88 1015.94 1016.08 1016.17 1016.16 1016.21 1016.24 1016.40 1016.52 1016.51 1016.76 1016.82 1016.99 1017.03 1017.16 1017.28 1017.36 1017.43 1017.59 1017.83 1018.01 1018.29 1018.36 1018.55 1018.64 1018.62 1018.93
1016.51 1016.03 1015.58 1015.43 1015.17 1014.98 1014.95 1015.04 1015.11 1015.30 1015.47 1015.59 1015.74 1015.82 1015.79 1015.80 1015.85 1016.00 1016.06 1016.17 1016.30 1016.32 1016.35 1016.47 1016.60 1016.64 1016.83 1016.94 1017.16 1017.18 1017.31 1017.39 1017.52 1017.59 1017.65 1017.92 1018.09 1018.32 1018.43 1018.65 1018.85 1018.82 1019.03
1019.51 1018.74 1017.97 1016.97 1016.28 1015.66 1015.57 1015.44 1015.25 1015.19 1015.37 1015.53 1015.64 1015.80 1015.94 1015.90 1015.89 1015.92 1016.08 1016.22 1016.34 1016.28 1016.48 1016.55 1016.59 1016.64 1016.93 1017.03 1017.19 1017.24 1017.35 1017.52 1017.66 1017.64 1017.70 1018.01 1018.10 1018.24 1018.47 1018.74 1019.00 1018.93 1019.12
1021.31 1020.23 1019.54 1018.70 1018.14 1017.51 1016.01 1015.81 1015.91 1015.72 1015.59 1015.67 1015.60 1015.68 1015.76 1015.87 1015.97 1015.88 1016.12 1016.31 1016.27 1016.46 1016.54 1016.61 1016.63 1016.67 1016.94 1017.04 1017.12 1017.14 1017.30 1017.54 1017.56 1017.72 1017.85 1017.88 1018.03 1018.27 1018.46 1018.80 1019.16 1019.20 1019.31
1022.78 1021.62 1020.91 1020.06 1019.37 1018.58 1017.80 1017.07 1015.91 1015.73 1015.63 1015.52 1015.55 1015.66 1015.70 1015.82 1015.91 1016.02 1016.15 1016.28 1016.19 1016.37 1016.46 1016.55 1016.56 1016.67 1016.92 1017.12 1017.15 1017.14 1017.38 1017.56 1017.68 1017.63 1017.76 1017.92 1017.99 1018.07 1018.41 1018.79 1019.05 1019.30 1019.57
1023.65 1022.53 1022.07 1021.46 1020.76 1019.61 1018.79 1017.76 1017.08 1015.87 1015.47 1015.69 1015.59 1015.74 1015.84 1015.86 1015.98 1016.03 1016.18 1016.28 1016.27 1016.26 1016.34 1016.49 1016.50 1016.55 1016.84 1017.05 1017.20 1017.24 1017.51 1017.64 1017.58 1017.68 1017.85 1017.85 1018.11 1018.10 1018.31 1018.67 1018.96 1019.26 1019.69
1024.26 1023.94 1023.42 1022.81 1022.03 1021.12 1020.07 1018.79 1017.97 1016.73 1015.75 1015.52 1015.52 1015.57 1015.73 1015.86 1016.13 1016.09 1016.18 1016.36 1016.30 1016.39 1016.38 1016.49 1016.54 1016.60 1016.79 1016.92 1017.16 1017.25 1017.56 1017.72 1017.65 1017.75 1017.88 1017.93 1018.11 1018.11 1018.31 1018.63 1019.03 1019.14 1019.69
1024.97 1025.07 1024.74 1023.95 1023.29 1022.39 1020.86 1019.80 1019.01 1017.60 1016.29 1015.70 1015.55 1015.59 1015.72 1015.94 1016.28 1016.34 1016.26 1016.36 1016.35 1016.34 1016.54 1016.60 1016.56 1016.64 1016.88 1017.11 1017.27 1017.45 1017.65 1017.68 1017.72 1017.75 1018.05 1018.14 1018.01 1018.10 1018.17 1018.65 1018.99 1019.27 1019.72
1026.62 1026.19 1025.97 1025.25 1024.55 1023.69 1022.47 1021.40 1020.12 1019.00 1017.31 1016.23 1015.69 1015.78 1015.81 1016.03 1016.31 1016.61 1016.57 1016.49 1016.42 1016.48 1016.50 1016.69 1016.64 1016.70 1017.04 1017.23 1017.45 1017.60 1017.66 1017.81 1017.89 1017.76 1017.94 1017.99 1017.91 1017.91 1018.12 1018.46 1018.89 1019.36 1019.77
1029.17 1028.14 1027.28 1026.56 1025.67 1024.70 1023.82 1022.47 1021.46 1020.33 1018.85 1016.89 1016.25 1016.01 1016.12 1016.23 1016.48 1016.69 1016.74 1016.66 1016.55 1016.60 1016.56 1016.72 1016.74 1016.82 1017.09 1017.33 1017.40 1017.47 1017.67 1017.76 1017.96 1018.05 1017.90 1017.84 1017.84 1017.73 1017.87 1018.25 1018.47 1019.02 1019.67
1029.82 1029.28 1028.40 1027.37 1026.41 1025.60 1024.83 1023.71 1022.73 1021.39 1019.99 1018.32 1016.75 1016.12 1016.02 1016.14 1016.68 1016.73 1016.82 1016.87 1016.85 1016.72 1016.67 1016.70 1016.74 1016.83 1017.10 1017.46 1017.45 1017.53 1017.60 1017.80 1017.86 1017.90 1017.82 1017.77 1017.84 1017.78 1018.30 1018.75 1019.08 1018.59 1019.09
1030.61 1029.93 1029.23 1028.24 1027.21 1026.13 1025.19 1024.33 1023.43 1022.08 1020.90 1019.64 1017.95 1016.58 1015.84 1015.87 1016.32 1016.69 1016.80 1016.90 1016.91 1016.85 1016.66 1016.67 1016.82 1016.88 1017.02 1017.37 1017.38 1017.52 1017.62 1017.83 1017.77 1017.76 1017.81 1017.78 1017.59 1018.03 1019.04 1018.99 1013.28 1018.97 1019.31
1031.68 1030.77 1029.99 1028.90 1028.05 1027.14 1025.87 1024.61 1023.91 1022.42 1021.41 1020.21 1018.82 1016.94 1016.19 1015.82 1015.90 1016.26 1016.57 1016.66 1016.76 1016.67 1016.55 1016.50 1016.70 1016.88 1017.10 1017.28 1017.42 1017.68 1017.82 1017.91 1017.86 1017.72 1017.81 1017.88 1017.61 1018.09 1018.18 1018.36 1016.12 1018.46 1019.84
1032.85 1031.98 1030.81 1029.53 1028.62 1027.66 1026.52 1025.13 1023.87 1022.67 1021.84 1020.73 1019.14 1017.59 1016.21 1015.78 1015.75 1015.79 1016.02 1016.33 1016.44 1016.48 1016.40 1016.37 1016.58 1016.82 1017.19 1017.51 1017.67 1018.07 1018.22 1018.12 1018.12 1017.71 1017.66 1017.83 1018.03 1018.06 1017.97 1018.32 1019.72 1019.77 1020.41
1033.68 1032.65 1031.71 1030.66 1029.50 1028.32 1027.01 1025.86 1024.58 1023.56 1022.39 1020.94 1019.83 1018.36 1016.04 1015.45 1015.39 1015.58 1015.65 1015.70 1015.81 1016.09 1016.09 1016.20 1016.54 1017.10 1017.43 1017.82 1018.25 1018.62 1018.73 1018.43 1018.40 1017.92 1017.52 1017.66 1017.87 1018.31 1018.48 1018.69 1019.90 1020.66 1020.92
1034.21 1033.33 1032.31 1031.23 1030.23 1029.07 1027.52 1026.37 1025.21 1023.89 1022.73 1022.02 1020.89 1019.00 1017.13 1015.89 1014.95 1015.06 1015.05 1015.12 1015.40 1015.60 1015.74 1015.93 1016.60 1017.06 1017.68 1018.52 1018.78 1019.35 1019.44 1019.21 1019.02 1018.38 1018.03 1017.65 1017.51 1017.92 1018.45 1019.16 1020.01 1020.35 1020.95
1034.93 1034.02 1032.97 1031.90 1030.91 1029.82 1028.34 1026.91 1025.53 1024.29 1023.63 1022.56 1021.32 1019.40 1018.41 1017.23 1015.72 1014.63 1014.49 1014.60 1015.04 1015.37 1015.74 1015.82 1016.45 1017.34 1017.88 1018.52 1019.14 1019.94 1020.06 1020.07 1019.81 1019.01 1018.81 1018.29 1017.48 1017.80 1018.38 1019.00 1020.00 1020.72 1021.48
1035.15 1034.39 1033.48 1032.30 1031.49 1030.52 1029.03 1027.92 1026.02 1024.53 1023.34 1022.03 1021.20 1020.89 1019.34 1018.11 1016.98 1015.22 1014.78 1014.38 1014.52 1014.98 1015.40 1015.97 1016.72 1017.19 1018.46 1018.55 1018.74 1020.06 1020.52 1020.81 1020.59 1020.08 1019.84 1019.84 1018.19 1018.43 1018.98 1019.62 1020.38 1021.25 1022.21
1035.70 1035.05 1034.08 1033.29 1032.29 1031.43 1030.54 1029.58 1028.59 1026.53 1024.25 1023.16 1021.98 1021.19 1020.06 1019.16 1018.30 1016.68 1014.94 1014.40 1014.17 1014.73 1015.07 1015.60 1016.14 1017.17 1017.77 1017.99 1018.20 1018.92 1020.55 1021.02 1020.86 1021.16 1021.19 1020.32 1018.98 1018.93 1019.88 1020.44 1021.04 1021.94 1022.84
1036.18 1035.68 1034.86 1033.93 1033.02 1032.03 1031.29 1029.91 1028.71 1026.83 1024.95 1023.26 1022.10 1021.19 1020.58 1019.71 1018.74 1017.19 1015.39 1014.09 1013.93 1014.29 1014.65 1014.97 1015.48 1016.00 1016.82 1017.62 1017.72 1017.63 1019.49 1020.40 1021.59 1022.28 1022.02 1019.95 1020.53 1020.29 1021.14 1021.75 1022.11 1022.68 1023.46
1036.79 1036.21 1035.41 1034.55 1033.48 1032.42 1031.69 1030.76 1029.75 1028.54 1026.80 1025.44 1024.29 1022.88 1021.69 1020.36 1018.64 1017.55 1015.73 1013.65 1013.50 1013.77 1014.13 1014.56 1014.87 1015.13 1015.57 1016.47 1017.35 1017.39 1017.47 1017.53 1019.79 1022.37 1022.22 1021.48 1021.47 1022.13 1022.02 1022.76 1023.15 1023.74 1023.92
1037.11 1036.41 1035.70 1034.77 1033.84 1032.95 1032.17 1031.46 1030.32 1029.26 1028.16 1026.47 1024.88 1023.59 1022.24 1020.50 1019.22 1018.17 1016.54 1013.75 1013.23 1013.18 1013.53 1013.86 1014.42 1014.72 1015.00 1015.30 1016.10 1017.21 1017.58 1017.79 1018.53 1019.47 1021.83 1023.25 1023.09 1024.00 1023.79 1023.94 1024.31 1024.48 1024.94
1037.24 1036.61 1035.94 1034.90 1034.01 1033.24 1032.33 1031.52 1030.81 1029.69 1028.44 1026.67 1025.29 1024.20 1022.63 1020.97 1019.30 1018.09 1016.93 1015.12 1013.41 1012.49 1012.79 1013.22 1013.66 1013.93 1014.39 1014.84 1015.55 1016.04 1015.91 1016.33 1017.99 1018.67 1020.52 1022.70 1023.94 1025.56 1025.44 1025.25 1025.08 1025.45 1025.51
Thickness
5725 5729 5730 5730 5729 5729 5729 5728 5728 5727 5728 5728 5728 5726 5725 5725 5725 5725 5724 5723 5724 5724 5723 5722 5721 5720 5720 5720 5719 5719 5720 5721 5721 5719 5719 5720 5722 5721 5720 5720 5721 5723 5722
5717 5724 5727 5727 5726 5724 5723 5724 5723 5722 5723 5723 5723 5722 5721 5720 5721 5721 5721 5720 5721 5721 5720 5718 5718 5718 5718 5718 5717 5717 5717 5718 5719 5716 5716 5717 5719 5719 5717 5719 5720 5719 5720
5695 5709 5717 5720 5720 5720 5719 5718 5717 5716 5717 5718 5717 5718 5717 5716 5716 5717 5716 5716 5717 5717 5717 5715 5714 5714 5714 5715 5715 5714 5714 5715 5718 5715 5713 5716 5715 5715 5715 5716 5717 5716 5716
5688 5691 5703 5706 5707 5708 5709 5708 5708 5708 5709 5710 5712 5712 5713 5713 5713 5713 5711 5712 5713 5713 5713 5711 5710 5711 5711 5712 5711 5712 5711 5712 5714 5714 5712 5710 5711 5711 5712 5712 5713 5715 5713
5680 5683 5686 5690 5695 5700 5702 5701 5702 5701 5702 5703 5704 5705 5707 5708 5710 5709 5709 5709 5708 5709 5709 5708 5707 5707 5707 5708 5707 5708 5707 5708 5709 5710 5709 5707 5707 5707 5708 5708 5708 5711 5710
5659 5665 5670 5674 5677 5685 5690 5694 5697 5700 5700 5700 5701 5701 5701 5703 5705 5707 5706 5706 5706 5707 5706 5705 5704 5705 5704 5704 5705 5705 5705 5704 5705 5705 5706 5705 5704 5705 5705 5703 5703 5706 5708
5642 5652 5657 5665 5670 5675 5683 5683 5683 5687 5691 5693 5696 5698 5699 5699 5700 5703 5702 5702 5704 5702 5702 5701 5701 5702 5701 5701 5702 5702 5702 5702 5701 5702 5700 5702 5701 5702 5701 5700 5698 5699 5701
5626 5636 5644 5651 5657 5665 5672 5679 5683 5684 5685 5688 5690 5691 5693 5695 5696 5697 5697 5698 5701 5700 5699 5699 5700 5699 5698 5697 5698 5699 5698 5698 5698 5699 5699 5698 5699 5701 5698 5696 5695 5694 5695
5614 5625 5630 5635 5642 5653 5660 5668 5675 5683 5686 5685 5686 5686 5687 5689 5690 5692 5693 5694 5696 5696 5696 5695 5697 5698 5696 5694 5693 5693 5693 5694 5694 5694 5694 5696 5696 5697 5697 5695 5694 5693 5692
5605 5609 5614 5620 5627 5635 5644 5654 5663 5671 5679 5681 5683 5683 5683 5683 5682 5686 5688 5688 5691 5691 5691 5692 5693 5693 5692 5692 5689 5689 5688 5689 5689 5689 5690 5692 5693 5694 5694 5692 5691 5691 5689
5594 5594 5598 5606 5611 5619 5632 5641 5648 5659 5668 5674 5676 5678 5678 5677 5676 5678 5681 5683 5685 5686 5685 5686 5688 5689 5687 5686 5685 5684 5683 5683 5684 5684 5683 5685 5689 5690 5690 5689 5688 5688 5686
5573 5578 5581 5589 5594 5601 5611 5621 5633 5641 5653 5661 5668 5669 5670 5670 5670 5669 5673 5677 5679 5680 5681 5681 5683 5683 5680 5680 5680 5679 5678 5678 5678 5679 5680 5683 5686 5686 5686 5686 5685 5683 5682
5546 5555 5563 5570 5577 5586 5594 5605 5614 5624 5634 5648 5654 5659 5662 5663 5663 5663 5666 5669 5672 5674 5675 5676 5677 5676 5676 5675 5675 5674 5674 5673 5672 5672 5676 5680 5681 5682 5683 5682 5682 5681 5678
5532 5537 5544 5553 5562 5569 5576 5586 5595 5607 5618 5630 5642 5650 5655 5656 5654 5656 5658 5661 5663 5667 5668 5670 5671 5671 5671 5669 5670 5669 5669 5669 5669 5668 5673 5676 5676 5676 5673 5671 5670 5682 5681
5514 5520 5527 5535 5544 5554 5562 5571 5579 5591 5602 5612 5626 5638 5647 5648 5648 5648 5651 5653 5655 5659 5662 5664 5664 5665 5665 5664 5665 5665 5665 5664 5664 5665 5669 5672 5673 5671 5662 5671 5682 5669 5675
5495 5501 5507 5516 5524 5534 5545 5556 5564 5577 5586 5597 5610 5624 5634 5638 5640 5642 5643 5645 5647 5652 5655 5659 5658 5659 5659 5660 5660 5660 5661 5660 5660 5662 5664 5666 5669 5666 5667 5667 5666 5668 5669
5470 5476 5487 5498 5506 5515 5527 5539 5551 5563 5572 5581 5595 5609 5622 5630 5632 5635 5637 5639 5641 5644 5648 5651 5653 5653 5653 5653 5653 5652 5653 5654 5655 5659 5660 5661 5662 5662 5670 5668 5652 5655 5654
5446 5453 5461 5471 5482 5494 5506 5518 5531 5541 5553 5567 5578 5592 5612 5620 5625 5626 5630 5634 5637 5638 5641 5644 5646 5645 5645 5644 5642 5642 5644 5646 5647 5654 5656 5658 5658 5656 5659 5661 5652 5645 5646
5419 5428 5436 5446 5456 5468 5483 5496 5509 5523 5535 5544 5556 5574 5591 5605 5615 5619 5623 5627 5630 5632 5636 5639 5637 5637 5635 5630 5631 5628 5631 5634 5637 5645 5646 5653 5657 5658 5656 5652 5649 5649 5646
5388 5396 5406 5417 5428 5440 5455 5471 5486 5499 5512 5524 5537 5558 5569 5582 5597 5610 5615 5620 5621 5624 5626 5631 5629 5625 5625 5622 5621 5616 5618 5621 5625 5635 5636 5644 5654 5653 5653 5650 5645 5643 5638
5357 5364 5372 5385 5396 5409 5424 5439 5459 5477 5492 5508 5522 5531 5549 5563 5575 5592 5600 5610 5614 5617 5618 5619 5617 5617 5609 5614 5617 5609 5606 5606 5610 5620 5624 5625 5642 5643 5642 5641 5638 5633 5627
5322 5325 5334 5344 5355 5370 5385 5399 5413 5436 5461 5477 5496 5510 5527 5542 5553 5569 5587 5598 5605 5607 5611 5611 5612 5607 5607 5610 5614 5612 5600 5599 5601 5602 5607 5615 5633 5635 5631 5628 5628 5625 5620
5285 5289 5295 5304 5315 5328 5343 5365 5383 5406 5430 5453 5474 5491 5503 5520 5535 5551 5570 5587 5595 5599 5602 5606 5607 5608 5605 5604 5607 5614 5601 5598 5590 5586 5592 5611 5613 5618 5616 5614 5614 5613 5609
5256 5257 5263 5270 5280 5292 5306 5322 5343 5364 5388 5409 5430 5454 5475 5493 5517 5532 5551 5573 5585 5591 5594 5596 5600 5604 5605 5605 5601 5604 5609 5617 5600 5583 5583 5595 5597 5594 5602 5599 5599 5598 5600
5234 5237 5238 5244 5252 5261 5273 5287 5305 5327 5348 5374 5399 5424 5446 5473 5493 5511 5529 5558 5572 5581 5585 5590 5592 5595 5600 5603 5603 5596 5601 5603 5602 5605 5586 5576 5581 5576 5582 5583 5583 5585 5586
5219 5221 5223 5229 5234 5239 5247 5260 5275 5295 5318 5345 5369 5393 5419 5448 5470 5491 5509 5534 5555 5573 5578 5582 5587 5590 5593 5595 5596 5599 5606 5608 5600 5596 5587 5571 5568 5556 5562 5567 5570 5572 5574